Date String (YYYY-MM-DD hh:mm:ss) UTC,Instrument flags,Ambient pressure (hPa),Sample flow (lpm),Bypass flow (lpm),Sample temperature (°C),Ambient temperature (°C),ASC tube jacket temperature (°C),LED temperature (°C),Box temperature (°C),Sample RH (%),Span deviation,Mass concentration (μg/m³),Mass concentration (μg/m³),Mass concentration (μg/m³)
DateTimeUTC,F1_M11,P_M11,Q1_M11,Q2_M11,T1_M11,T2_M11,T3_M11,T4_M11,T5_M11,U1_M11,ZSPAN_M11,X0_M11,X2_M11,X1_M11
2021-09-08 05:00:00,,0832.6,4.99,0.00,29.4,27.3,00.0,38.6,31.0,18.0,0001.9,0062.64,0038.56,0035.34
2021-09-08 05:01:00,,0832.6,5.00,0.00,29.4,27.6,00.0,38.6,31.1,18.0,0002.0,0063.03,0038.60,0035.40
2021-09-08 05:02:00,,0832.6,5.00,0.00,29.4,27.9,00.0,38.6,31.1,18.0,0001.9,0063.48,0038.59,0035.43
2021-09-08 05:03:00,,0832.6,5.01,0.00,29.5,28.0,00.0,38.6,31.2,18.0,0001.8,0061.99,0038.55,0035.46
2021-09-08 05:04:00,,0832.7,5.00,0.00,29.5,28.2,00.0,38.6,31.2,17.9,0001.6,0060.19,0038.60,0035.53
2021-09-08 05:05:00,,0832.6,5.01,0.00,29.5,28.3,00.0,38.6,31.3,17.9,0001.4,0059.53,0038.63,0035.57
2021-09-08 05:06:00,,0832.6,5.00,0.00,29.5,28.4,00.0,38.6,31.3,17.9,0001.0,0060.52,0038.55,0035.54
2021-09-08 05:07:00,,0832.6,5.00,0.00,29.6,28.5,00.0,38.6,31.4,17.9,0000.6,0061.68,0038.38,0035.40
2021-09-08 05:08:00,,0832.6,5.00,0.00,29.6,28.6,00.0,38.6,31.4,17.9,0000.4,0060.64,0038.34,0035.33
2021-09-08 05:09:00,,0832.6,5.00,0.00,29.6,28.6,00.0,38.7,31.4,17.8,0000.4,0059.85,0038.22,0035.22
2021-09-08 05:10:00,,0832.6,5.00,0.00,29.7,28.7,00.0,38.7,31.4,17.7,0000.4,0060.80,0038.23,0035.14
2021-09-08 05:11:00,,0832.7,4.99,0.00,29.7,28.7,00.0,38.7,31.5,17.7,0000.3,0062.54,0038.14,0035.08
2021-09-08 05:12:00,,0832.6,5.01,0.00,29.7,28.8,00.0,38.7,31.5,17.7,0000.2,0061.72,0038.02,0034.96
2021-09-08 05:13:00,,0832.7,5.00,0.00,29.8,28.8,00.0,38.7,31.5,17.6,0000.2,0060.80,0037.93,0034.88
2021-09-08 05:14:00,,0832.7,5.00,0.00,29.8,28.9,00.0,38.8,31.6,17.6,0000.5,0060.86,0037.84,0034.80
2021-09-08 05:15:00,,0832.7,5.01,0.00,29.8,28.1,00.0,38.8,31.4,17.6,0000.7,0061.07,0037.72,0034.73
2021-09-08 05:16:00,,0832.7,5.00,0.00,29.7,26.4,00.0,38.7,31.0,17.7,0000.6,0061.06,0037.58,0034.61
2021-09-08 05:17:00,,0832.7,5.00,0.00,29.5,26.2,00.0,38.7,30.9,17.8,0000.9,0060.57,0037.49,0034.49
2021-09-08 05:18:00,,0832.6,5.00,0.00,29.4,26.5,00.0,38.7,30.9,17.9,0001.3,0060.49,0037.48,0034.49
2021-09-08 05:19:00,,0832.6,5.00,0.00,29.4,26.9,00.0,38.6,30.9,18.0,0001.4,0060.24,0037.39,0034.43
2021-09-08 05:20:00,,0832.7,5.01,0.00,29.4,27.3,00.0,38.6,31.0,18.0,0001.5,0059.87,0037.37,0034.40
2021-09-08 05:21:00,,0832.7,5.00,0.00,29.4,27.6,00.0,38.6,31.1,18.0,0001.6,0059.95,0037.30,0034.41
2021-09-08 05:22:00,,0832.7,5.00,0.00,29.4,27.8,00.0,38.6,31.1,18.0,0001.9,0057.91,0037.20,0034.35
2021-09-08 05:23:00,,0832.7,5.00,0.00,29.5,28.0,00.0,38.6,31.2,17.9,0001.8,0057.87,0037.17,0034.32
2021-09-08 05:24:00,,0832.7,5.00,0.00,29.5,28.1,00.0,38.6,31.2,17.9,0001.9,0058.51,0037.21,0034.31
2021-09-08 05:25:00,,0832.7,5.00,0.00,29.5,28.2,00.0,38.6,31.2,17.9,0001.9,0059.33,0037.25,0034.29
2021-09-08 05:26:00,,0832.7,5.01,0.00,29.5,28.4,00.0,38.6,31.3,17.8,0001.8,0059.83,0037.35,0034.28
2021-09-08 05:27:00,,0832.7,5.00,0.00,29.6,28.4,00.0,38.6,31.3,17.7,0001.8,0059.42,0037.40,0034.34
2021-09-08 05:28:00,,0832.7,4.99,0.00,29.6,28.5,00.0,38.6,31.3,17.7,0001.8,0059.01,0037.50,0034.42
2021-09-08 05:29:00,,0832.7,5.01,0.00,29.6,28.6,00.0,38.7,31.4,17.6,0001.6,0059.31,0037.63,0034.52
2021-09-08 05:30:00,,0832.6,4.99,0.00,29.7,28.6,00.0,38.7,31.4,17.6,0001.6,0060.02,0037.71,0034.58
2021-09-08 05:31:00,,0832.6,5.00,0.00,29.7,28.7,00.0,38.7,31.4,17.6,0001.6,0060.88,0037.71,0034.61
2021-09-08 05:32:00,,0832.6,5.01,0.00,29.7,28.7,00.0,38.7,31.4,17.5,0001.7,0060.10,0037.75,0034.65
2021-09-08 05:33:00,,0832.6,5.00,0.00,29.7,28.8,00.0,38.7,31.5,17.4,0001.8,0059.74,0037.77,0034.69
2021-09-08 05:34:00,,0832.7,5.01,0.00,29.8,28.8,00.0,38.8,31.5,17.3,0002.2,0059.39,0037.79,0034.75
2021-09-08 05:35:00,,0832.6,5.00,0.00,29.8,28.8,00.0,38.8,31.6,17.2,0002.4,0059.73,0037.84,0034.82
2021-09-08 05:36:00,,0832.6,5.00,0.00,29.8,28.9,00.0,38.8,31.6,17.3,0002.3,0060.95,0037.90,0034.92
2021-09-08 05:37:00,,0832.6,5.00,0.00,29.8,27.8,00.0,38.8,31.3,17.4,0002.2,0060.72,0037.89,0034.93
2021-09-08 05:38:00,,0832.6,5.00,0.00,29.6,26.2,00.0,38.8,30.9,17.6,0002.2,0060.79,0037.79,0034.83
2021-09-08 05:39:00,,0832.6,4.99,0.00,29.5,26.1,00.0,38.7,30.9,17.6,0002.2,0061.83,0037.76,0034.77
2021-09-08 05:40:00,,0832.6,5.00,0.00,29.4,26.5,00.0,38.7,30.9,17.6,0002.4,0061.91,0037.71,0034.73
2021-09-08 05:41:00,,0832.6,5.01,0.00,29.4,26.9,00.0,38.7,30.9,17.6,0002.6,0061.33,0037.67,0034.73
2021-09-08 05:42:00,,0832.6,4.99,0.00,29.4,27.3,00.0,38.6,31.0,17.6,0002.8,0061.08,0037.71,0034.76
2021-09-08 05:43:00,,0832.6,4.99,0.00,29.4,27.6,00.0,38.6,31.1,17.5,0002.8,0061.04,0037.70,0034.76
2021-09-08 05:44:00,,0832.6,5.01,0.00,29.4,27.8,00.0,38.6,31.1,17.4,0002.6,0060.51,0037.76,0034.80
2021-09-08 05:45:00,,0832.6,5.00,0.00,29.5,28.0,00.0,38.6,31.2,17.4,0002.5,0060.91,0037.84,0034.84
2021-09-08 05:46:00,,0832.5,4.99,0.00,29.5,28.1,00.0,38.6,31.2,17.4,0002.0,0061.49,0037.91,0034.88
2021-09-08 05:47:00,,0832.5,5.01,0.00,29.5,28.3,00.0,38.6,31.3,17.3,0002.0,0060.08,0037.96,0034.89
2021-09-08 05:48:00,,0832.5,4.99,0.00,29.6,28.4,00.0,38.6,31.3,17.2,0001.7,0059.59,0038.00,0034.99
2021-09-08 05:49:00,,0832.5,5.00,0.00,29.6,28.4,00.0,38.6,31.3,17.2,0001.5,0059.59,0038.18,0035.15
2021-09-08 05:50:00,,0832.5,5.01,0.00,29.6,28.5,00.0,38.7,31.4,17.1,0001.6,0058.46,0038.23,0035.30
2021-09-08 05:51:00,,0832.5,5.01,0.00,29.6,28.6,00.0,38.7,31.4,17.1,0001.7,0057.54,0038.34,0035.43
2021-09-08 05:52:00,,0832.5,5.00,0.00,29.7,28.6,00.0,38.7,31.4,17.0,0001.1,0057.04,0038.43,0035.53
2021-09-08 05:53:00,,0832.5,5.00,0.00,29.7,28.7,00.0,38.7,31.5,16.9,0000.8,0056.41,0038.46,0035.61
2021-09-08 05:54:00,,0832.4,4.99,0.00,29.7,28.7,00.0,38.7,31.5,16.9,0000.9,0057.14,0038.59,0035.69
2021-09-08 05:55:00,,0832.4,5.00,0.00,29.8,28.8,00.0,38.7,31.5,16.9,0000.7,0057.81,0038.64,0035.76
2021-09-08 05:56:00,,0832.4,5.01,0.00,29.8,28.8,00.0,38.8,31.5,16.8,0000.3,0057.85,0038.60,0035.80
2021-09-08 05:57:00,,0832.4,4.99,0.00,29.8,28.8,00.0,38.8,31.6,16.8,0000.5,0057.00,0038.62,0035.87
2021-09-08 05:58:00,,0832.4,5.00,0.00,29.8,28.9,00.0,38.8,31.6,16.8,0000.6,0056.57,0038.65,0035.93
2021-09-08 05:59:00,,0832.4,5.00,0.00,29.8,28.9,00.0,38.8,31.6,16.8,0000.9,0056.88,0038.68,0035.99
